This demonstration page uses our WeatherBlox Daily Observations layout. Learn more.

Left ArrowRight Arrow

Hourly Observations for February 25, 2016

Temp ( °F °C ) Dew Point ( °F °C ) Humidity (%) Winds ( mph kmh ) Pressure ( in mb ) Visibility ( mi km ) Precip ( " mm )
12:02 am 00:02 Cloudy with Light Snow 32 0 32 0 100 100 NW 8 13 30.12 1020 5 8 0.00 0.00
12:10 am 00:10 Cloudy with Light Snow 32 0 32 0 100 100 NW 8 13 30.12 1020 6 10 0.00 0.00
12:13 am 00:13 Cloudy with Light Snow 32 0 32 0 100 100 NW 8 13 30.12 1020 7 11 0.00 0.00
12:21 am 00:21 Cloudy with Light Rain/Snow 32 0 32 0 100 100 NW 8 13 30.12 1020 10 16 0.00 0.00
12:42 am 00:42 Cloudy with Light Rain/Snow 34 1 32 0 93 93 NW 14 22 30.12 1020 10 16 0.00 0.00
12:46 am 00:46 Cloudy 34 1 32 0 93 93 NW 14 22 30.12 1020 10 16 0.00 0.00
12:47 am 00:47 Cloudy with Light Rain/Snow 34 1 32 0 93 93 NW 13 20 30.12 1020 10 16 0.00 0.00
12:57 am 00:57 Cloudy 34 1 32 0 93 93 NW 13 20 30.15 1021 10 16 0.00 0.00
12:58 am 00:58 Cloudy 34 1.3 33 0.3 93 93 NW 13 20 30.12 1020 10 16 0.01 0.25
1:13 am 01:13 Cloudy with Light Rain/Snow 34 1 32 0 93 93 NW 13 20 30.15 1021 10 16 0.00 0.00
1:28 am 01:28 Cloudy 34 1 32 0 93 93 NW 14 22 30.15 1021 10 16 0.00 0.00
1:44 am 01:44 Cloudy with Light Snow 36 2 32 0 87 87 NW 18 30 30.12 1020 10 16 0.00 0.00
1:58 am 01:58 Cloudy with Light Snow 35 1.5 31 -0.3 88 88 NNW 17 28 30.13 1020 10 16 0.00 0.03
2:06 am 02:06 Cloudy with Light Snow 34 1 32 0 93 93 NNW 13 20 30.15 1021 10 16 0.00 0.00
2:58 am 02:58 Cloudy with Light Rain/Snow 34 1.1 30 -1.3 84 84 NNW 13 20 30.14 1021 10 16 0.00 0.03
3:20 am 03:20 Cloudy 34 1 30 -1 87 87 NNW 15 24 30.15 1021 10 16 0.00 0.00
3:31 am 03:31 Cloudy with Light Rain/Snow 34 1 30 -1 87 87 NNW 15 24 30.18 1022 10 16 0.00 0.00
3:58 am 03:58 Cloudy with Light Snow 34 1 30 -1.3 85 85 NW 12 19 30.15 1021 10 16 0.00 0.03
4:14 am 04:14 Cloudy 32 0 30 -1 93 93 NW 12 19 30.18 1022 10 16 0.00 0.00
4:45 am 04:45 Cloudy 34 1 28 -2 81 81 NNW 10 17 30.18 1022 10 16 0.00 0.00
4:50 am 04:50 Cloudy 34 1 28 -2 81 81 NNW 14 22 30.18 1022 10 16 0.00 0.00
4:58 am 04:58 Cloudy 34 1.2 29 -1.9 80 80 NW 14 22 30.17 1022 10 16 0.00 0.03
5:58 am 05:58 Cloudy 34 0.9 28 -2 81 81 NW 16 26 30.19 1022 10 16 0.00 0.00
6:12 am 06:12 Cloudy 32 0 28 -2 87 87 NW 16 26 30.21 1023 10 16 0.00 0.00
6:17 am 06:17 Cloudy 32 0 28 -2 87 87 NW 16 26 30.21 1023 10 16 0.00 0.00
6:21 am 06:21 Cloudy 32 0 28 -2 87 87 NW 14 22 30.21 1023 10 16 0.00 0.00
6:24 am 06:24 Cloudy 32 0 28 -2 87 87 NW 14 22 30.21 1023 10 16 0.00 0.00
6:58 am 06:58 Cloudy 33 0.5 26 -3.1 77 77 NW 13 20 30.22 1023 10 16 0.00 0.00
7:58 am 07:58 Cloudy 33 0.6 26 -3.2 76 76 NNW 14 22 30.26 1025 10 16 0.00 0.00
8:58 am 08:58 Cloudy 34 1.1 26 -3.5 72 72 NNW 14 22 30.28 1026 10 16 0.00 0.00
9:58 am 09:58 Cloudy 36 2 27 -2.6 72 72 NNW 14 22 30.32 1027 10 16 0.00 0.00
11:58 am 11:58 Cloudy 35 1.9 27 -2.7 72 72 NNW 15 24 30.37 1029 10 16 0.00 0.00
12:08 pm 12:08 Cloudy with Light Rain 36 2 28 -2 75 75 NW 10 17 30.39 1029 10 16 0.00 0.00
12:11 pm 12:11 Cloudy 36 2 28 -2 75 75 NW 16 26 30.39 1029 10 16 0.00 0.00
12:58 pm 12:58 Cloudy 34 1.2 29 -1.9 80 80 NW 12 19 30.38 1029 10 16 0.00 0.00
1:58 pm 13:58 Cloudy 34 1.3 27 -2.7 75 75 NNW 15 24 30.38 1029 10 16 0.00 0.00
2:29 pm 14:29 Cloudy 36 2 27 -3 70 70 NNW 12 19 30.39 1029 10 16 0.00 0.00
2:35 pm 14:35 Cloudy 36 2 27 -3 70 70 NW 16 26 30.39 1029 10 16 0.00 0.00
2:43 pm 14:43 Cloudy 36 2 27 -3 70 70 NNW 14 22 30.39 1029 10 16 0.00 0.00
2:58 pm 14:58 Cloudy 35 1.8 26 -3.4 69 69 NNW 13 20 30.38 1029 10 16 0.00 0.00
3:33 pm 15:33 Cloudy with Light Rain 36 2 27 -3 70 70 NW 8 13 30.42 1030 10 16 0.00 0.00
3:42 pm 15:42 Cloudy 36 2 27 -3 70 70 NW 14 22 30.39 1029 10 16 0.00 0.00
3:58 pm 15:58 Cloudy 35 1.9 26 -3.6 67 67 NNW 13 20 30.39 1029 10 16 0.00 0.03
4:16 pm 16:16 Cloudy 36 2 27 -3 70 70 NW 10 17 30.42 1030 10 16 0.00 0.00
4:43 pm 16:43 Cloudy 36 2 25 -4 65 65 NNW 13 20 30.42 1030 10 16 0.00 0.00
4:58 pm 16:58 Cloudy 35 1.7 25 -4 66 66 NW 13 20 30.39 1029 10 16 0.00 0.00
5:58 pm 17:58 Cloudy 35 1.4 25 -4 68 68 NW 14 22 30.40 1030 10 16 0.00 0.00
6:28 pm 18:28 Cloudy 34 1 23 -5 65 65 NW 12 19 30.42 1030 10 16 0.00 0.00
6:58 pm 18:58 Cloudy 34 1.3 23 -4.8 64 64 NW 6 9 30.40 1030 10 16 0.00 0.00
7:58 pm 19:58 Cloudy 34 1.2 22 -5.6 61 61 NNW 8 13 30.40 1030 10 16 0.00 0.00
8:58 pm 20:58 Cloudy 33 0.5 23 -5 67 67 NW 6 9 30.39 1029 10 16 0.00 0.00
9:42 pm 21:42 Cloudy 32 0 23 -5 69 69 NW 6 9 30.39 1029 10 16 0.00 0.00
9:58 pm 21:58 Cloudy 34 1 23 -5 65 65 WNW 5 7 30.38 1029 10 16 0.00 0.00
10:42 pm 22:42 Partly Cloudy 32 0 23 -5 69 69 NNW 3 6 30.39 1029 10 16 0.00 0.00
10:58 pm 22:58 Mostly Clear 29 -1.4 23 -5 77 77 NNW 3 6 30.38 1029 10 16 0.00 0.00
11:58 pm 23:58 Clear 28 -2.3 22 -5.4 80 80 WSW 1 2 30.37 1028 10 16 0.00 0.00

Powered by AerisWeather